Weather History for KPAM - May, 2013

Change the Weather History Date:

Thursday, May 16, 2013

  Actual Average (KECP) Record (KECP)
Temperature  
Mean Temperature 72 °F -  
Max Temperature 80 °F - - ()
Min Temperature 63 °F - - ()
Degree Days  
Heating Degree Days 0    
Cooling Degree Days 6    
Growing Degree Days 22 (Base 50)    
Moisture  
Dew Point 66 °F    
Average Humidity 90    
Maximum Humidity 100    
Minimum Humidity 61    
Precipitation  
Precipitation 0.00 in - - ()
Month to date precipitation  
Year to date precipitation  
Sea Level Pressure  
Sea Level Pressure 30.06 in    
Wind  
Wind Speed 3 mph (SSE)    
Max Wind Speed 14 mph    
Max Gust Speed -    
Visibility 9 miles    
Events      
T = Trace of Precipitation, MM = Missing Value Source: NWS Daily Summary

Daily Weather History Graph

Daily Weather History Graph

Search for Another Location

Airport or City:

Trip Planner

Search our weather history database for the weather conditions in past years. The results will help you decide how hot, cold, wet, or windy it might be!

Date:

Astronomy

May. 16, 2013 Rise Set
Actual Time 5:48 AM CDT 7:29 PM CDT
Civil Twilight 5:21 AM CDT 7:56 PM CDT
Nautical Twilight 4:50 AM CDT 8:27 PM CDT
Astronomical Twilight 4:17 AM CDT 9:00 PM CDT
Moon 11:12 AM CDT (5/16) No Moon Set
Length of Visible Light 14h 34m
Length of Day
13h 41m
Waxing Crescent, 36% of the Moon is Illuminated
May 16
Waxing Crescent
May 17
First Quarter
May 24
Full
May 31
Last Quarter
Jun 8
New

Hourly Weather History & Observations

Time (CDT) Temp. Heat Index Dew Point Humidity Pressure Visibility Wind Dir Wind Speed Gust Speed Precip Events Conditions
12:58 AM 65.3 °F - 65.3 °F 100% 30.07 in 10.0 mi Calm Calm - N/A   Scattered Clouds
1:08 AM 64.4 °F - 64.4 °F 100% 30.05 in 9.0 mi Calm Calm - N/A   Scattered Clouds
1:23 AM 64.4 °F - 64.4 °F 100% 30.05 in 4.0 mi South 2.3 mph - N/A   Mostly Cloudy
1:28 AM 64.4 °F - 64.4 °F 100% 30.05 in 4.0 mi South 2.3 mph - N/A   Scattered Clouds
1:33 AM 64.4 °F - 64.4 °F 100% 30.05 in 10.0 mi South 1.2 mph - N/A   Partly Cloudy
1:53 AM 64.4 °F - 64.4 °F 100% 30.04 in 7.0 mi Calm Calm - N/A   Clear
1:58 AM 64.4 °F - 64.4 °F 100% 30.05 in 6.0 mi Calm Calm - N/A   Clear
2:03 AM 64.4 °F - 64.4 °F 100% 30.04 in 5.0 mi Calm Calm - N/A   Partly Cloudy
2:13 AM 64.4 °F - 64.4 °F 100% 30.04 in 8.0 mi Calm Calm - N/A   Mostly Cloudy
2:23 AM 64.4 °F - 64.4 °F 100% 30.04 in 5.0 mi Calm Calm - N/A   Mostly Cloudy
2:33 AM 64.4 °F - 64.4 °F 100% 30.04 in 8.0 mi Calm Calm - N/A   Mostly Cloudy
2:38 AM 64.4 °F - 64.4 °F 100% 30.04 in 10.0 mi Calm Calm - N/A   Mostly Cloudy
2:58 AM 64.2 °F - 64.2 °F 100% 30.05 in 10.0 mi Calm Calm - N/A   Partly Cloudy
3:58 AM 63.7 °F - 63.7 °F 100% 30.06 in 10.0 mi Calm Calm - N/A   Overcast
4:58 AM 63.7 °F - 63.7 °F 100% 30.06 in 10.0 mi ESE 2.3 mph - N/A   Mostly Cloudy
5:58 AM 63.9 °F - 63.9 °F 100% 30.09 in 10.0 mi East 2.3 mph - N/A   Mostly Cloudy
6:58 AM 66.2 °F - 66.2 °F 100% 30.11 in 10.0 mi East 2.3 mph - N/A   Mostly Cloudy
7:58 AM 68.7 °F - 68.7 °F 100% 30.12 in 10.0 mi SE 5.8 mph - N/A   Clear
8:50 AM 71.6 °F - 71.6 °F 100% 30.12 in 10.0 mi ESE 4.6 mph - N/A   Light Drizzle
8:56 AM 71.6 °F - 71.6 °F 100% 30.12 in 10.0 mi SE 4.6 mph - N/A   Overcast
9:56 AM 75.2 °F - 69.8 °F 83% 30.11 in 10.0 mi ESE 5.8 mph - N/A   Mostly Cloudy
10:56 AM 77.0 °F - 66.2 °F 69% 30.10 in 10.0 mi SSE 10.4 mph - N/A   Mostly Cloudy
11:56 AM 78.8 °F - 68.0 °F 69% 30.09 in 10.0 mi South 12.7 mph - N/A   Light Drizzle
12:40 PM 80.6 °F 82.7 °F 66.2 °F 61% 30.07 in 10.0 mi South 13.8 mph - N/A   Overcast
12:59 PM 78.8 °F - 66.2 °F 65% 30.07 in 10.0 mi South 11.5 mph - N/A   Mostly Cloudy
1:04 PM 78.8 °F - 66.2 °F 65% 30.07 in 10.0 mi South 12.7 mph - N/A   Mostly Cloudy
1:57 PM 78.8 °F - 68.0 °F 69% 30.07 in 10.0 mi South 12.7 mph - N/A   Mostly Cloudy
2:57 PM 78.8 °F - 66.2 °F 65% 30.06 in 10.0 mi South 11.5 mph - N/A   Mostly Cloudy
3:56 PM 78.8 °F - 68.0 °F 69% 30.05 in 10.0 mi South 9.2 mph - N/A   Scattered Clouds
4:58 PM 75.6 °F - 68.4 °F 78% 30.05 in 10.0 mi SSW 10.4 mph - 0.00 in   Light Drizzle
5:03 PM 75.2 °F - 68.0 °F 78% 30.04 in 10.0 mi South 11.5 mph - N/A   Partly Cloudy
5:58 PM 75.7 °F - 69.6 °F 81% 30.04 in 10.0 mi SSW 10.4 mph - 0.00 in   Light Drizzle
6:58 PM 73.4 °F - 69.6 °F 88% 30.04 in 10.0 mi South 9.2 mph - 0.00 in   Light Drizzle
7:09 PM 73.4 °F - 69.8 °F 88% 30.02 in 10.0 mi South 9.2 mph - N/A   Clear
7:58 PM 70.9 °F - 69.6 °F 96% 30.05 in 10.0 mi South 6.9 mph - N/A   Clear
8:58 PM 69.8 °F - 69.4 °F 99% 30.05 in 10.0 mi South 6.9 mph - 0.00 in   Clear
9:58 PM 66.6 °F - 66.6 °F 100% 30.06 in 10.0 mi SE 3.5 mph - N/A   Clear
10:58 PM 65.3 °F - 65.3 °F 100% 30.06 in 10.0 mi SE 3.5 mph - N/A   Clear
11:58 PM 63.9 °F - 63.9 °F 100% 30.04 in 10.0 mi SE 4.6 mph - N/A   Clear